This demonstration page uses our WeatherBlox Daily Observations layout. Learn more.

Left ArrowRight Arrow

36.17497, -115.13722

Hourly Observations for December 13, 2018

Temp ( °F °C ) Dew Point ( °F °C ) Humidity (%) Winds ( mph kmh ) Pressure ( in mb ) Visibility ( mi km ) Precip ( " mm )
12:53 am 00:53 Clear 44 6.7 16 -8.9 32 32 SSE 7 11 30.34 1027 10 16.0934 0 0
1:53 am 01:53 Clear 44 6.7 16 -8.9 32 32 Calm 30.37 1029 10 16.0934 0 0
2:53 am 02:53 Clear 44 6.7 15 -9.4 31 31 NNW 7 11 30.39 1029 10 16.0934 0 0
3:53 am 03:53 Clear 42 5.6 15 -9.4 33 33 NNW 5 7 30.41 1030 10 16.0934 0 0
4:53 am 04:53 Clear 42 5.6 18 -7.8 38 38 W 7 11 30.44 1031 10 16.0934 0 0
5:53 am 05:53 Clear 40 4.4 19 -7.2 43 43 NNW 5 7 30.46 1032 10 16.0934 0 0
6:53 am 06:53 Sunny 39 3.9 18 -7.8 43 43 Calm 30.48 1032 10 16.0934 0 0
7:53 am 07:53 Sunny 42 5.6 15 -9.4 33 33 WNW 5 7 30.5 1033 10 16.0934 0 0
8:53 am 08:53 Sunny 47 8.3 15 -9.4 28 28 NW 9 15 30.49 1033 10 16.0934 0 0
9:53 am 09:53 Sunny 50 10 14 -10 24 24 NNW 6 9 30.5 1033 10 16.0934 0 0
10:53 am 10:53 Sunny 53 11.7 15 -9.4 22 22 Calm 30.48 1032 10 16.0934 0 0
11:53 am 11:53 Sunny 53 11.7 14 -10 21 21 Calm 30.45 1031 10 16.0934 0 0
12:53 pm 12:53 Sunny 55 12.8 13 -10.6 19 19 SSE 6 9 30.42 1030 10 16.0934 0 0
1:53 pm 13:53 Sunny 55 12.8 12 -11.1 18 18 ESE 3 6 30.41 1030 10 16.0934 0 0
2:53 pm 14:53 Sunny 57 13.9 12 -11.1 17 17 Calm 30.39 1029 10 16.0934 0 0
3:53 pm 15:53 Sunny 56 13.3 12 -11.1 17 17 Calm 30.39 1029 10 16.0934 0 0
4:53 pm 16:53 Clear 54 12.2 14 -10 20 20 SSW 3 6 30.4 1029 10 16.0934 0 0
5:53 pm 17:53 Clear 52 11.1 14 -10 22 22 Calm 30.41 1030 10 16.0934 0 0
6:53 pm 18:53 Clear 49 9.4 19 -7.2 31 31 W 6 9 30.42 1030 10 16.0934 0 0
7:53 pm 19:53 Clear 46 7.8 21 -6.1 37 37 W 5 7 30.43 1030 10 16.0934 0 0
8:53 pm 20:53 Clear 43 6.1 21 -6.1 42 42 NNW 5 7 30.43 1030 10 16.0934 0 0
9:53 pm 21:53 Clear 42 5.6 20 -6.7 41 41 NNW 6 9 30.42 1030 10 16.0934 0 0
10:53 pm 22:53 Clear 42 5.6 21 -6.1 43 43 WNW 3 6 30.4 1030 10 16.0934 0 0
11:53 pm 23:53 Clear 39 3.9 21 -6.1 48 48 N 6 9 30.41 1030 10 16.0934 0 0

Powered by AerisWeather